Other Public Products
Issued by NWS Grand Forks, ND

Home | Current Version | Previous Version | Text Only | Print | Product List | Glossary On
Versions: 1 2 3 4 5 6 7 8 9 10 11 12 13 14 15 16 17 18 19 20 21 22 23 24 25 26 27 28 29 30 31 32 33 34 35 36 37 38 39 40 41 42 43 44 45 46 47 48 49 50
286
FPUS83 KFGF 222310
OPUFGF
PRAIRIE TO PINES WEATHER ROUNDUP
NATIONAL WEATHER SERVICE EASTERN NORTH DAKOTA/GRAND FORKS ND
600 PM CDT SUN APR 22 2018

 **SATELLITE DATA USED TO AUGMENT SKY COVER AT AUTOMATED STATIONS**
 *****  WEATHER ACROSS EASTERN NORTH DAKOTA  *****

CITY           SKY/WX    TMP DP  RH WIND       PRES   REMARKS
GRAND FORKS    FAIR      61  45  55 SW21      30.12F
GRND FORKS AFB PTSUNNY   63  44  51 S18       30.11F
GRND FORKS NWS   N/A     62  45  53 SW22      30.10F
BUXTON           N/A     64  45  49 SW13        N/A
DEVILS LAKE    PTSUNNY   62  40  44 W6        30.10F
FARGO          FAIR      65  39  38 S21       30.15S
WAHPETON ARPT  FAIR      61  36  39 S17       30.19S
$$

 *****  WEATHER ACROSS CENTRAL AND WESTERN NORTH DAKOTA  *****

CITY           SKY/WX    TMP DP  RH WIND       PRES   REMARKS
JAMESTOWN      FAIR      65  39  38 SW15G24   30.11S
BISMARCK       PTSUNNY   69  40  34 S8        30.06F
MINOT          FAIR      64  30  27 W3        30.08F
MINOT AFB      NOT AVBL
GARRISON         N/A     61  35  37 N6        30.09S
WILLISTON      PTSUNNY   67  23  19 W12G21    30.08S
DICKINSON      FAIR      66  22  18 N6        30.06F
HETTINGER      FAIR      68  32  26 VRB7      30.07F
$$

 *****  OTHER OBSERVATIONS NORTHEAST NORTH DAKOTA  *****

CITY           SKY/WX    TMP DP  RH WIND       PRES   REMARKS
WALHALLA       FAIR      61  39  44 SW10      30.08S
LANGDON        NOT AVBL
CAVALIER         N/A     61  43  51 SW7G16    30.08F
GRAFTON        NOT AVBL
CANDO          CLOUDY    63  34  34 W3        30.11S
FORT TOTTEN      N/A     62  39  42 N5        29.95S
ROLLA          CLOUDY    59  30  33 W12       30.09S
RUGBY          NOT AVBL
 ***** THE ABOVE OBSERVATIONS ARE NON NWS ARE NOT QUALITY
        CONTROLLED AND MAY MIS-REPORT RAIN FOR SNOW...
$$

 *****  OTHER OBSERVATIONS SOUTHEAST NORTH DAKOTA *****

CITY           SKY/WX    TMP DP  RH WIND       PRES   REMARKS
COOPERSTOWN    FAIR      61  45  55 S20G28    30.13S
VALLEY CITY    NOT AVBL
OAKES            N/A     63  34  34 S21G28    30.15F
GWINNER          N/A     63  39  42 SW14G21   30.16S
SHEYENNE NWR     N/A     65  37  36 S14       29.95S
BUFFALO          N/A     62  34  35 E14         N/A
WYNDMERE       NOT AVBL
 ***** THE ABOVE OBSERVATIONS ARE NON NWS ARE NOT QUALITY
       CONTROLLED AND MAY MIS-REPORT RAIN FOR SNOW...
$$

  *****  WEATHER ACROSS NORTHERN MINNESOTA  *****

CITY           SKY/WX    TMP DP  RH WIND       PRES   REMARKS
FLAG ISLAND    FAIR      52  36  54 SW15      30.08S
WARROAD        FAIR      61  45  55 SW15G23   30.12F
ROSEAU         CLOUDY    61  46  59 SW20      30.12F
HALLOCK        CLOUDY    63  41  45 SW14      30.09S
THF RVR FALLS  FAIR      60  43  53 W21       30.15S
HALSTAD        NOT AVBL
FOSSTON        FAIR      61  37  41 SW17G23   30.17F
BAUDETTE       FAIR      62  39  42 W14G26    30.12S
WASKISH        FAIR      55  36  47 W10       30.16S
CROOKSTON      FAIR      63  43  48 SW20      30.15S
$$
  *****  WEATHER ACROSS CENTRAL AND WEST MINNESOTA  *****

CITY           SKY/WX    TMP DP  RH WIND       PRES   REMARKS
BEMIDJI        FAIR      62  32  32 SW10G17   30.17S
PARK RAPIDS    FAIR      62  33  33 W15       30.20S
WADENA         FAIR      61  37  41 S12       30.21S
DETROIT LAKES  FAIR      61  34  36 SW13      30.21S
MOORHEAD       FAIR      64  37  36 S13G21    30.17F
FERGUS FALLS   FAIR      61  37  41 S15       30.19R
ELBOW LAKE     FAIR      59  39  47 SW14      30.23S
MORRIS MN      FAIR      59  41  51 S16       30.22S
STAPLES        FAIR      61  30  31 SW8       30.22S
WHEATON        FAIR      59  36  41 S12       30.23S
$$
  *****  WEATHER ELSEWHERE ACROSS MINNESOTA  *****

CITY           SKY/WX    TMP DP  RH WIND       PRES   REMARKS
DULUTH         FAIR      60  32  34 SW12      30.22F
INTRNTL FALLS  FAIR      63  31  30 SW12      30.13F
ELY            FAIR      61  27  27 W9        30.18F
CLOQUET        FAIR      61  25  25 SW10      30.23F
BRAINERD       FAIR      62  32  32 SW12      30.22F
HIBBING        FAIR      59  26  28 S10G17    30.20S
ALEXANDRIA     FAIR      62  38  40 S12       30.23F
SAINT CLOUD    FAIR      61  35  37 SW10      30.24S
MINNEAPOLIS    FAIR      63  35  35 VRB6      30.24F
$$

  *****  WEATHER ACROSS SOUTH DAKOTA  *****

CITY           SKY/WX    TMP DP  RH WIND       PRES   REMARKS
SIOUX FALLS    FAIR      61  37  41 SE13      30.19F
BROOKINGS      FAIR      57  37  47 S13G21    30.21F
WATERTOWN      FAIR      58  39  49 S14       30.19F
HURON          FAIR      62  37  39 S14       30.17F
SISSETON         N/A     60  38  43 S15       30.19S
ABERDEEN       FAIR      64  33  31 S17G26    30.17S
MITCHELL       FAIR      62  39  42 S9        30.18S
PIERRE         FAIR      63  39  41 S15       30.11F
MOBRIDGE       FAIR      65  39  38 S13       30.08F
RAPID CITY     FAIR      65  38  36 S8        30.06F
$$

  *****  SOME WEATHER IN NEARBY STATES *****

CITY           SKY/WX    TMP DP  RH WIND       PRES   REMARKS
GLASGOW MT     FAIR      64  25  22 N9        30.08S
GREAT FALLS MT FAIR      58  15  18 N9        30.10F
CHEYENNE WY    FAIR      62  30  29 VRB6      30.11F
SCOTTSBLUFF NE FAIR      63  38  39 E6        30.09F
OMAHA NE       PTSUNNY   68  32  26 E8G18     30.13F
DES MOINES IA  PTSUNNY   67  26  21 E8        30.16R
DAVENPORT IA   FAIR      63  28  26 E15       30.21S
CHICAGO IL     PTSUNNY   57  25  29 NE14      30.25S
EAU CLAIRE WI  FAIR      63  30  28 S5        30.25F
LA CROSSE WI   FAIR      65  30  27 E8        30.25F
$$

  *****  SOME NATIONAL WEATHER *****

CITY           SKY/WX    TMP DP  RH WIND       PRES   REMARKS
LA GUARDIA NY  FAIR      57  24  28 S13       30.33R
RALEIGH NC     CLOUDY    67  39  35 SE5       30.28F
ATLANTA GA     RAIN      60  59  96 E21G32    30.05F FOG
NEW ORLEANS LA FAIR      79  63  57 W14       29.83F
OKLAHOMA CITY  PTSUNNY   61  45  55 N17G24    30.02S
ALBUQUERQUE NM PTSUNNY   74  20  13 VRB3      30.04F
SALT LAKE CITY PTSUNNY   76  27  16 VRB5      29.96F
LOS ANGELES CA FAIR      67  55  65 SW14      29.90F
BOISE ID       FAIR      65  31  28 NW18G25   30.02F
SEATTLE WA     FAIR      59  40  49 N12G17    30.33F
$$

*** WEATHER ACROSS MANITOBA...SASKATCHEWAN AND ONTARIO ***
                ***ONTARIO***

CITY           SKY/WX    TMP DP  RH WIND       PRES   REMARKS
GERALDTON      PTSUNNY   52  14  22 S14G24    30.20F
THUNDER BAY    MOSUNNY   59  19  21 S7        30.20F
SIOUX LOOKOUT  PTSUNNY   57  30  35 SW13G22   30.08F
TORONTO        MOSUNNY   57  18  21 SE6       30.36S
BIG TROUT LK   MOSUNNY   46  30  53 S13G18    29.86F
PICKLE LAKE    CLOUDY    55  27  33 SW12G18   30.02F
DRYDEN         SUNNY     61  28  29 SW16G24   30.08F
KENORA         PTSUNNY   57  34  41 SW14      30.08S
$$
                *** MANITOBA***

CITY           SKY/WX    TMP DP  RH WIND       PRES   REMARKS
BRANDON        MOSUNNY   63  32  31 W23       30.02F
DAUPHIN        SUNNY     61  32  33 W22G32    29.96S
ISLAND LAKE    PTSUNNY   54  36  50 SW12G20   29.74F
PILOT MOUND      N/A     61  30  31 SW13        N/A
THE PAS        LGT RAIN  46  34  61 W16G24    29.72R
THOMPSON       LGT RAIN  39  37  93 SW12G20   29.52R
WINNIPEG       PTSUNNY   63  30  29 W14G21    30.03F
LYNN LAKE      CLOUDY    34  32  93 N9        29.58R
CHURCHILL      FRZ RAIN  28  27  93 E29G37    29.73F BLWGSNOWWCI  13
$$
                ***SASKATCHEWAN***

CITY           SKY/WX    TMP DP  RH WIND       PRES   REMARKS
ESTEVAN        MOSUNNY   63  27  25 W10G24    30.06S
KINDERSLEY     PTSUNNY   50  30  46 NW21G29   30.09R
LLOYDMINSTER   PTSUNNY   45  34  65 NW23G35   30.05R
PRINCE ALBERT  PTSUNNY   48  36  61 W25G32    29.92R
REGINA         MOSUNNY   57  23  26 W26G33    30.07R
YORKTON        SUNNY     55  27  33 W30G43    29.97R
N. BATTLEFORD  CLOUDY    46  34  61 W22G28    30.05R



USA.gov is the U.S. government's official web portal to all federal, state and local government web resources and services.